Regional Weather Roundup
Issued by NWS Wakefield, VA

Home | Current Version | Previous Version | Text Only | Print | Product List | Glossary Off
Versions: 1 2 3 4 5 6 7 8 9 10 11 12 13 14 15 16 17 18 19 20 21 22 23 24 25 26 27 28 29 30 31 32 33 34 35 36 37 38 39 40 41 42 43 44 45 46 47 48 49 50

000
ASUS41 KAKQ 040815
RWRAKQ

REGIONAL WEATHER ROUNDUP
NATIONAL WEATHER SERVICE WAKEFIELD VA
400 AM EDT SAT JUL 04 2015

Note: "fair" indicates few or no clouds below 12,000 feet with no
significant weather and/or obstructions to visibility. * = Denotes
station may not report precipitation (e.g., rain,snow,etc.),
thunder or fog.

VAZ042-051-052>054-056-040900-
NORTHERN VIRGINIA

CITY           SKY/WX    TMP DP  RH WIND       PRES   REMARKS
WASH NATIONAL  CLOUDY    73  68  84 NE5       29.89F
DULLES         CLOUDY    69  65  86 CALM      29.89F
FORT BELVOIR   MOCLDY    68  67  94 CALM      29.89S
QUANTICO       MOCLDY    73  66  78 NE3       29.89F
FREDERICKSBRG* CLOUDY    71  71 100 CALM      29.87F
STAFFORD*      CLOUDY    67  65  94 CALM      29.92F
WARRENTON      CLOUDY    69  69 100 CALM      29.89F FOG
CULPEPER*      CLOUDY    67  66  99 CALM      29.90S FOG
MANASSAS*      CLOUDY    70  70 100 CALM        N/A
LEESBURG*      CLOUDY    70  68  94 E3        29.91S
WINCHESTER     LGT RAIN  68  68 100 CALM      29.89F
FRONT ROYAL*   CLOUDY    64  64 100 CALM      29.89S
LURAY*         DRIZZLE   68  68 100 CALM      29.90F
$$

VAZ048-049-060>072-079>083-040900-
CENTRAL AND SOUTH CENTRAL VIRGINIA

CITY           SKY/WX    TMP DP  RH WIND       PRES   REMARKS
RICHMOND       CLOUDY    71  69  93 N6        29.85F
CHESTERFIELD*  NOT AVBL
PETERSBURG*    CLOUDY    72  72 100 NW3       29.86S FOG
HANOVER        PTCLDY    68  67  96 CALM      29.88S FOG
TAPPAHANNOCK*  PTCLDY    72  68  88 CALM      29.87S FOG
QUINTON*       CLOUDY    69  69  99 N5        29.85S
CHARLOTTSVILLE CLOUDY    69  66  90 CALM      29.89S FOG
GORDONSVILLE*  CLOUDY    68  66  94 CALM      29.88F FOG
ORANGE*        CLOUDY    68  68 100 CALM      29.91S FOG
LOUISA*        CLOUDY    70  66  88 CALM      29.87F FOG
BUMPASS*       CLOUDY    68  66  93 CALM      29.88F
FARMVILLE*     CLOUDY    71  71 100 CALM      29.89R FOG
CREWE*         CLOUDY    69  68  96 NW3       29.88S
FORT PICKETT*  CLOUDY    69  68  98 W8        29.88S
CHASE CITY*    CLOUDY    71  71 100 CALM      29.89S
CLARKSVILLE*   CLOUDY    68  68 100 W3        29.90R
SOUTH HILL*    CLOUDY    69  68  98 W3        29.95R
LAWRENCEVILLE* NOT AVBL
EMPORIA*         N/A     70  68  94 SW6       29.88R
$$

VAZ088>098-040900-
SOUTHEAST VIRGINIA

CITY           SKY/WX    TMP DP  RH WIND       PRES   REMARKS
NORFOLK        MOCLDY    74  71  91 SW12      29.83R
VIRGINIA BEACH MOCLDY    77  72  84 SW12      29.82F
NORFOLK NAVAL  MOCLDY    74  72  93 SW8       29.84F
WEST POINT*    MOCLDY    74  71  91 CALM      29.85S
SALUDA*        CLOUDY    74  72  93 E8        29.82F
NEWPORT NEWS   CLOUDY    75  73  93 SW7       29.83S
LANGLEY AFB    MOCLDY    75  73  94 SW9       29.81S
FORT EUSTIS    CLOUDY    73 N/A N/A VRB6      29.81S
WILLIAMSBURG*    N/A     75  75 100 CALM      29.84S
HR EXEC AP*    PTSUNNY   73  70  88 SW7       29.86S
FRANKLIN*      CLOUDY    73  72  95 SW5       29.85S
WAKEFIELD      CLOUDY    73  71  93 SW7       29.84S
$$

VAZ020-022-025-037-045-040900-
WEST CENTRAL AND SOUTHWEST VIRGINIA

CITY           SKY/WX    TMP DP  RH WIND       PRES   REMARKS
STAUNTON*      DRIZZLE   68  66  93 CALM      29.93S
WAYNESBORO*    CLOUDY    65  65 100 CALM      29.92S
HOT SPRINGS VA CLOUDY    63  63 100 SW5       30.00S FOG
LYNCHBURG      CLOUDY    68  67  96 CALM      29.92S FOG
DANVILLE       LGT RAIN  71  69  93 CALM      29.91R FOG
SOUTH BOSTON*  CLOUDY    69  68  95 MISG      29.90R
MARTINSVILLE   CLOUDY    70  70 100 CALM      29.95S FOG
ROANOKE        CLOUDY    68  67  96 CALM      29.94S FOG
BLACKSBURG     HVY RAIN  66  66 100 CALM      29.98S
DUBLIN*        CLOUDY    67  67 100 CALM      29.96F FOG
MARION*        HVY RAIN  65  64  94 W7        30.01S
HILLSVILLE*    CLOUDY    64  64 100 SW3       29.98S
RICHLANDS*     CLOUDY    64  64 100 SW8       29.99R
WISE*          CLOUDY    64  64 100 SW6       30.00S
ABINGDON*      CLOUDY    68  67  98 W7        29.98R
$$

MDZ021>025-VAZ099-100-040900-
SOUTHERN MARYLAND AND THE DELMARVA PENINSULA

CITY           SKY/WX    TMP DP  RH WIND       PRES   REMARKS
PATUXENT RIVER CLOUDY    72  69  90 E10       29.86F
BAY BRIDGE APT   N/A     70  66  88 E3        29.90S
LEONARDTOWN    MOCLDY    70  66  88 E3        29.88F
DOVER          CLOUDY    72  71  96 E9        29.89S
GEORGETOWN     CLOUDY    70  67  90 NE6       29.89F
EASTON         CLOUDY    69  69 100 E5        29.92F FOG
CAMBRIDGE      CLOUDY    72  68  88 NE3       29.87F
SALISBURY      CLOUDY    70  68  93 NE6       29.87F
OCEAN CITY     CLOUDY    73  69  87 E9        29.87F
WALLOPS ISLAND CLOUDY    74  72  93 E10       29.85F
ACCOMACK*      CLOUDY    73  72  94 E7        29.83F
$$

NCZ012>017-030>032-040900-
NORTH CENTRAL AND EASTERN NORTH CAROLINA

CITY           SKY/WX    TMP DP  RH WIND       PRES   REMARKS
ROANOKE RAPIDS FAIR      72  70  94 SW9       29.88R
RALEIGH        PTCLDY    71  69  93 SW6       29.91S
ELIZABETH CITY PTCLDY    75  72  90 SW13      29.86F
AHOSKIE*       PTCLDY   N/A N/A N/A CALM      29.87R HAZE
EDENTON*       MOCLDY    75  71  86 SW17      29.87F
CURRITUCK*     MOCLDY    75  72  91 SW8       29.86F
KILL DEVIL HLS MOCLDY    75  73  93 SW12G18   29.87S
MANTEO         MOCLDY    75  73  92 W14G20    29.89S
CAPE HATTERAS  LGT RAIN  76  70  82 W16G29    29.92F
TARBORO*         N/A     74  69  86 SW5       29.90S
GOLDSBORO      PTCLDY    74  71  91 SW6       29.90R FOG
WASHINGTON     MOCLDY    74  71  91 SW8       29.90F
GREENVILLE     PTCLDY    73  72  94 W6        29.93R
NEW BERN       CLOUDY    74  69  85 SW8       29.94S
WILMINGTON     PTCLDY    77  72  84 SW9       29.95F
$$

VAZ048-040900-
ELSEWHERE

CITY           SKY/WX    TMP DP  RH WIND       PRES   REMARKS
HARRISBURG PA  CLOUDY    67  62  84 SE5       29.92S
BALTIMORE      CLOUDY    70  66  87 E6        29.89F
ANNAPOLIS      CLOUDY    72  67  84 E6        29.89F
ANDREWS AFB    CLOUDY    69  69  99 E5        29.88F
PHILADELPHIA   CLOUDY    70  65  84 E3        29.94S
HENDERSON NC   CLOUDY    70  68  93 SW3       29.91R FOG
GREENSBORO     PTCLDY    68  68 100 SW5       29.92R
ROCKY MOUNT    PTCLDY    73  70  90 SW8       29.90S
$$

VAZ100-040900-
MARINE

STATION/POSITION TIME  TEMP    WIND        PRES    WAVE   SWELL
                       AIR SEA DIR/SP/G            HT/PER HT/PER
                 (UTC) (F)     (DEG/KT/KT) (MB)    (FT/S) (FT/S)
BRANDYWINE LGT   0700   73 72  120/ 11/ 13 1013.1F
CAPE MAY NJ      0700   72 76  100/  6/  9 1012.7F
LEWES DE         0700   72 72  120/  6/  8 1012.6F
15NM E FENWICK I 0750   74 73              1011.9F   3/ 8
OCEAN-CITY-INLET 0700   74 73  110/  5/  8 1012.1F
WACHAPREAGUE VA  0700   75 79   90/  9/ 12 1010.8F
THOMAS POINT MD  0800          110/  9       N/A
GOOSES REEF MD   0800   73 77  100/ 10/ 12 1012.6F
COVE POINT MD    0700   71     120/  9/ 12 1012.6F
SOLOMONS ISLAND  0700      79                N/A
BISHOPS HEAD MD  0700   73      80/ 10/ 13 1011.4F
PINEY POINT MD   0700          100/  8/ 10   N/A
CAMBRIDGE MD     0700   71 79   80/  7/ 11 1011.9F
LEWISETTA VA     0700   75 79  100/ 13/ 15 1010.8F
RAPPAHANNOCK LGT 0700           80/ 13/ 15 1010.8F
STINGRAY PT      0800   76 80   80/ 14/ 17 1009.6F   2/ 3
YORK RVR RNG VA  0700   76     190/ 16/ 19 1009.1F
YORKTOWN VA      0700   74 79  210/  9/ 12 1009.4F
JAMESTOWN VA     0800   74 82  250/  4/  8   N/A
DOMINION TERM VA 0700   75     200/ 10/ 13 1010.0F
KIPTOPEKE VA     0700      80  160/  5/  6   N/A
CHES BAY BRIDGE  0700   75 71  180/  9/ 13 1009.9F
CAPE HENRY VA    0700   74     190/  6/  9 1008.9F
CHESAPEAKE LGHT  0700   76     220/ 15/ 16 1011.1F
WILLOUBY STN VA  0700   75     200/ 11/ 13 1010.9F
CAPE HENRY BUOY  0728      78                N/A     3/ 4
1ST LANDING BUOY 0800      72              1009.7F   1/ 4
CAPE CHARLES BUO 0726      78                N/A     3/ 4   2/ 9
OFFSHORE WE BUOY 0711      78                N/A     4/ 9   3/ 9
64NM E OF VA BCH 0750   78 77  220/ 10/ 14 1010.6F   4/ 7   3/ 7
DUCK PIER NC     0700   77 75  240/ 14/ 20 1010.6F
44100 DUCK FRF   0724      76                N/A     3/ 8   2/15
44056 DUCK FRF   0711      77                N/A     2/14   2/14
OREGON INLET NC  0700   77 72  220/ 19/ 22 1011.9F
HATTERAS NC      0700   78 77  240/ 13/ 21 1013.0F
DIAMOND SHLS NC  0750   81 81  240/ 27/ 31 1012.5F   8/ 7   2/15
CAPE LOOKOUT NC  0800   80     240/ 14/ 21 1013.4F
$$


USA.gov is the U.S. government's official web portal to all federal, state and local government web resources and services.